This demonstration page uses our WeatherBlox Daily Observations layout. Learn more.

Left ArrowRight Arrow

41.86663, -103.66717

Hourly Observations for June 29, 2016

Temp ( °F °C ) Dew Point ( °F °C ) Humidity (%) Winds ( mph kmh ) Pressure ( in mb ) Visibility ( mi km ) Precip ( " mm )
12:53 am 00:53 Clear 60 15.6 53 11.7 78 78 SSW 13 20 30.07 1018 10 16 0.00 0.00
1:53 am 01:53 Clear 60 15.6 52 11.1 75 75 WSW 7 11 30.06 1018 10 16 0.00 0.00
2:53 am 02:53 Clear 57 13.9 53 11.7 87 87 NNW 7 11 30.06 1018 10 16 0.00 0.00
3:26 am 03:26 Clear with Nearby Thunderstorms 57 14 54 12 88 88 WNW 10 17 30.09 1019 10 16 0.00 0.00
3:41 am 03:41 Clear 60 15.6 53 11.7 78 78 NW 14 22 30.12 1020 10 16 0.00 0.00
3:53 am 03:53 Mostly Cloudy 61 16.1 53 11.7 75 75 NW 13 20 30.08 1019 10 16 0.00 0.00
4:37 am 04:37 Partly Cloudy 61 16.1 53 11.7 75 75 SSW 18 30 29.97 1015 10 16 0.01 0.25
4:53 am 04:53 Clear 60 15.6 53 11.7 78 78 SW 15 24 29.98 1015 10 16 0.01 0.25
5:09 am 05:09 Clear 60 15.6 53 11.7 78 78 NW 14 22 30.03 1017 10 16 0.00 0.00
5:53 am 05:53 Mostly Sunny 65 18.3 52 11.1 63 63 ESE 10 17 29.97 1015 10 16 0.00 0.00
6:53 am 06:53 Sunny 65 18.3 53 11.7 66 66 NNW 7 11 30.06 1018 10 16 0.00 0.00
7:53 am 07:53 Sunny 67 19.4 52 11.1 59 59 NW 6 9 30.06 1018 10 16 0.00 0.00
8:53 am 08:53 Sunny 71 21.7 53 11.7 53 53 VRB 3 6 30.05 1018 10 16 0.00 0.00
9:53 am 09:53 Sunny 75 23.9 56 13.3 52 52 NW 7 11 30.04 1017 10 16 0.00 0.00
10:53 am 10:53 Sunny 76 24.4 58 14.4 54 54 NE 8 13 30.04 1017 10 16 0.00 0.00
11:53 am 11:53 Sunny 80 26.7 58 14.4 47 47 NNE 3 6 30.03 1017 10 16 0.00 0.00
12:53 pm 12:53 Sunny 85 29.4 57 13.9 39 39 E 10 17 30.01 1016 10 16 0.00 0.00
1:53 pm 13:53 Sunny 86 30 56 13.3 36 36 E 9 15 29.98 1015 10 16 0.00 0.00
2:53 pm 14:53 Sunny 89 31.7 55 12.8 31 31 ESE 10 17 29.94 1014 10 16 0.00 0.00
3:53 pm 15:53 Sunny 87 30.6 54 12.2 32 32 E 13 20 29.93 1014 10 16 0.00 0.00
4:53 pm 16:53 Sunny 87 30.6 56 13.3 35 35 ESE 12 19 29.93 1014 10 16 0.00 0.00
5:53 pm 17:53 Sunny 85 29.4 56 13.3 37 37 SE 9 15 29.93 1013 10 16 0.00 0.00
6:53 pm 18:53 Mostly Sunny 83 28.3 60 15.6 46 46 ESE 10 17 29.92 1013 10 16 0.00 0.00
7:14 pm 19:14 Mostly Sunny 75 24 55 13 50 50 SSW 16 26 29.83 1010 10 16 0.00 0.00
7:53 pm 19:53 Sunny 74 23.3 56 13.3 54 54 SSW 7 11 29.95 1014 10 16 0.00 0.00
8:53 pm 20:53 Clear 71 21.7 55 12.8 57 57 W 5 7 29.97 1015 10 16 0.00 0.00
9:53 pm 21:53 Clear 71 21.7 55 12.8 57 57 SSE 5 7 29.96 1014 10 16 0.00 0.00
10:53 pm 22:53 Clear 68 20 59 15 73 73 NNE 10 17 29.98 1015 10 16 0.00 0.00
11:53 pm 23:53 Mostly Cloudy 67 19.4 57 13.9 71 71 N 25 41 30.04 1017 10 16 0.00 0.00

Powered by AerisWeather